Tracking 18852 objects as of 23-Nov-2017
HD Live streaming from Space Station
objects crossing your sky now

FENGYUN 1C DEB

Track FENGYUN 1C DEB now!
10-day predictions


NORAD ID: 30056
Int'l Code: 1999-025PH
Perigee: 790.4 km
Apogee: 1,276.8 km
Inclination: 98.3 °
Period: 105.7 minutes
Semi major axis: 7404 km
RCS: 0.052 m2 (small)
Launch date: May 10, 1999
Source: People's Republic of China (PRC)
Launch site: Taiyaun Space Center, China (TSC)

Note: This is SATELLITE DEBRIS
aabbcc
Your satellite tracking list
Your tracking list is empty




NASA's NSSDC Master Catalog

Two Line Element Set (TLE):
1 30056U 99025PH  17326.49925131 +.00000728 +00000-0 +68088-3 0  9992
2 30056 098.3377 147.9757 0328390 125.5568 237.6664 13.62542124538101
Source of the keplerian elements: AFSPC